Location: Goettingen
(51.5300°N, 9.9433°E)
Time: 10:23:31
(UTC+02:00)

ISS - Pass Details

Date: 19 May 2018
Orbit: 402 x 407 km, 51.6° (Epoch: 23 May)

Event Time Altitude Azimuth Distance (km) Brightness Sun altitude
Rises 04:03:55 0° 283° (WNW) 2,321 -0.3 -9.9°
Reaches altitude 10° 04:06:01 10° 279° (W) 1,459 -1.3 -9.7°
Maximum altitude 04:09:13 55° 200° (SSW) 492 -3.8 -9.4°
Drops below altitude 10° 04:12:25 10° 122° (ESE) 1,455 -0.9 -9.1°
Sets 04:14:31 0° 118° (ESE) 2,312 0.2 -8.8°
